Weather History for KDFW - July, 2013

Change the Weather History Date:

Tuesday, July 23, 2013

  Actual Average Record
Temperature  
Mean Temperature 90 °F 86 °F  
Max Temperature 99 °F 96 °F 105 °F (1974)
Min Temperature 80 °F 76 °F 59 °F (1970)
Degree Days  
Heating Degree Days 0 0  
Month to date heating degree days 0 0  
Since 1 June heating degree days 0 0  
Since 1 July heating degree days 0 0  
Cooling Degree Days 25 21  
Month to date cooling degree days 440 462  
Year to date cooling degree days 1367 1375  
Since 1 June cooling degree days 978 953  
Growing Degree Days 40 (Base 50)    
Moisture  
Dew Point 70 °F    
Average Humidity 59    
Maximum Humidity 79    
Minimum Humidity 38    
Precipitation  
Precipitation 0.00 in 0.05 in 1.36 in (1926)
Month to date precipitation 1.96 1.73  
Year to date precipitation 17.26 21.77  
Sea Level Pressure  
Sea Level Pressure 29.87 in    
Wind  
Wind Speed 14 mph (SSW)    
Max Wind Speed 21 mph    
Max Gust Speed 28 mph    
Visibility 10 miles    
Events      
T = Trace of Precipitation, MM = Missing Value Source: NWS Daily Summary

Daily Weather History Graph

Daily Weather History Graph

Search for Another Location

Airport or City:

Trip Planner

Search our weather history database for the weather conditions in past years. The results will help you decide how hot, cold, wet, or windy it might be!

Date:

Astronomy

Jul. 23, 2013 Rise Set
Actual Time 6:35 AM CDT 8:32 PM CDT
Civil Twilight 6:08 AM CDT 9:00 PM CDT
Nautical Twilight 5:34 AM CDT 9:33 PM CDT
Astronomical Twilight 4:59 AM CDT 10:09 PM CDT
Moon 9:10 PM CDT (7/23) 7:39 AM CDT (7/23)
Length of Visible Light 14h 52m
Length of Day
13h 57m
Full, 99% of the Moon is Illuminated
Jul 23
Full
Jul 29
Last Quarter
Aug 6
New
Aug 14
First Quarter
Aug 20
Full

Hourly Weather History & Observations

Time (CDT) Temp. Heat Index Dew Point Humidity Pressure Visibility Wind Dir Wind Speed Gust Speed Precip Events Conditions
12:53 AM 87.1 °F 92.0 °F 70.0 °F 57% 29.90 in 10.0 mi South 15.0 mph 23.0 mph N/A   Clear
1:53 AM 86.0 °F 90.7 °F 70.0 °F 59% 29.89 in 10.0 mi South 15.0 mph - N/A   Scattered Clouds
2:53 AM 84.0 °F 87.8 °F 69.1 °F 61% 29.89 in 10.0 mi South 15.0 mph - N/A   Mostly Cloudy
3:53 AM 82.0 °F 85.9 °F 70.0 °F 67% 29.89 in 10.0 mi South 12.7 mph - N/A   Mostly Cloudy
4:53 AM 81.0 °F 84.9 °F 71.1 °F 72% 29.89 in 10.0 mi South 13.8 mph - N/A   Mostly Cloudy
5:53 AM 80.1 °F 83.8 °F 72.0 °F 76% 29.91 in 10.0 mi SSW 10.4 mph - N/A   Scattered Clouds
6:53 AM 80.1 °F 83.8 °F 72.0 °F 76% 29.91 in 10.0 mi SSW 15.0 mph - N/A   Mostly Cloudy
7:53 AM 81.0 °F 85.8 °F 73.0 °F 77% 29.92 in 10.0 mi South 12.7 mph - N/A   Partly Cloudy
8:53 AM 84.0 °F 90.2 °F 73.0 °F 69% 29.93 in 10.0 mi SSW 15.0 mph 21.9 mph N/A   Scattered Clouds
9:53 AM 86.0 °F 93.0 °F 73.0 °F 65% 29.94 in 10.0 mi SSW 15.0 mph - N/A   Mostly Cloudy
10:53 AM 90.0 °F 97.9 °F 73.0 °F 57% 29.94 in 10.0 mi SSW 13.8 mph - N/A   Mostly Cloudy
11:53 AM 91.0 °F 100.4 °F 73.9 °F 57% 29.93 in 10.0 mi SSW 11.5 mph - N/A   Scattered Clouds
12:53 PM 93.0 °F 101.9 °F 73.0 °F 52% 29.91 in 10.0 mi SSW 9.2 mph - N/A   Scattered Clouds
1:53 PM 96.1 °F 105.6 °F 73.0 °F 47% 29.90 in 10.0 mi SSW 13.8 mph 21.9 mph N/A   Scattered Clouds
2:53 PM 97.0 °F 105.5 °F 72.0 °F 44% 29.88 in 10.0 mi SSW 13.8 mph 21.9 mph N/A   Mostly Cloudy
3:53 PM 98.1 °F 106.5 °F 71.1 °F 42% 29.84 in 10.0 mi SSW 19.6 mph - N/A   Mostly Cloudy
4:53 PM 99.0 °F 105.5 °F 69.1 °F 38% 29.83 in 10.0 mi SSW 17.3 mph - N/A   Mostly Cloudy
5:53 PM 97.0 °F 102.8 °F 69.1 °F 40% 29.82 in 10.0 mi SSW 16.1 mph - N/A   Mostly Cloudy
6:53 PM 96.1 °F 99.9 °F 66.9 °F 38% 29.78 in 10.0 mi SSW 19.6 mph - N/A   Mostly Cloudy
7:53 PM 93.9 °F 97.0 °F 66.0 °F 40% 29.79 in 10.0 mi SSW 17.3 mph - N/A   Scattered Clouds
8:53 PM 91.9 °F 92.9 °F 63.0 °F 38% 29.80 in 10.0 mi South 12.7 mph - N/A   Scattered Clouds
9:53 PM 90.0 °F 90.6 °F 63.0 °F 40% 29.82 in 10.0 mi South 9.2 mph - N/A   Scattered Clouds
10:53 PM 88.0 °F 88.7 °F 63.0 °F 43% 29.83 in 10.0 mi South 10.4 mph - N/A   Scattered Clouds
11:53 PM 87.1 °F 87.8 °F 63.0 °F 44% 29.83 in 10.0 mi South 10.4 mph - N/A   Scattered Clouds